Location: Calais Saint-Pierre
(50.9509°N, 1.8522°E)
Time: 20:09:20
(UTC+00:00)

Cosmos 2279 Rocket - Pass Details

Date: 15 May 2026
Orbit: 963 x 978 km, 82.9° (Epoch: 6 June)

Event Time Altitude Azimuth Distance (km) Brightness Sun altitude
Exits shadow 22:16:39 26° 147° (SSE) 1,811 4.8 -17.1°
Maximum altitude 22:19:48 47° 90° (E) 1,282 4.4 -17.3°
Drops below altitude 10° 22:25:44 10° 19° (NNE) 2,739 7.1 -17.7°
Sets 22:28:21 0° 14° (NNE) 3,691 8.0 -17.8°
